Location: Pian di Sc�
(43.6333°N, 11.5500°E)
Time: 14:23:13
(UTC+00:00)

Cosmos 1092 Rocket - Pass Details

Date: 07 August 2020
Orbit: 953 x 996 km, 82.9° (Epoch: 25 September)

Event Time Altitude Azimuth Distance (km) Brightness Sun altitude
Rises 00:38:34 0° 351° (N) 3,693 7.9 -27.4°
Reaches altitude 10° 00:41:06 10° 350° (N) 2,735 7.1 -27.2°
Maximum altitude 00:47:22 80° 265° (W) 987 3.8 -26.8°
Enters shadow 00:48:06 69° 201° (SSW) 1,031 3.8 -26.7°
